Regional Weather Roundup
Issued by NWS

Home | Current Version | Previous Version | Text Only | Print | Product List | Glossary On
Versions: 1 2 3 4 5 6 7 8 9 10 11 12 13 14 15 16 17 18 19 20 21 22 23 24 25 26 27 28 29 30 31 32 33 34 35 36 37 38 39 40 41 42 43 44 45 46 47 48 49 50
000
ASUS43 KMPX 250401
RWRMN
WEATHER ROUNDUP FOR MINNESOTA
NATIONAL WEATHER SERVICE TWIN CITIES/CHANHASSEN MN
1100 PM CDT THU JUL 24 2014


NOTE: "FAIR" INDICATES FEW OR NO CLOUDS BELOW 12,000 FEET WITH NO
SIGNIFICANT WEATHER AND/OR OBSTRUCTIONS TO VISIBILITY. N/A MEANS
CURRENT SKY AND/OR WEATHER CONDITIONS ARE NOT AVAILABLE.

MNZ060>063-068>070-250500-
   Twin Cities Metro

CITY           SKY/WX    TMP DP  RH WIND       PRES   REMARKS
TWIN CITIES    PTCLDY    73  60  63 SW8       29.96R
ST PAUL        CLEAR     70  60  70 SW8       29.96R
CRYSTAL        PTCLDY    72  59  63 S5        29.94S
BLAINE         CLEAR     70  63  78 CALM      29.95F
LAKEVILLE      PTCLDY    66  59  77 CALM      29.97F
EDEN PRAIRIE   PTCLDY    69  60  73 S8        29.95S
SOUTH ST PAUL  PTCLDY    71  59  67 SW5       29.96S
LAKE ELMO      MOCLDY    68  63  83 S5        29.97F
$$
MNZ001>005-007-008-013>017-022>024-027-028-250500-
   Northwest Minnesota

CITY           SKY/WX    TMP DP  RH WIND       PRES   REMARKS
BEMIDJI        MOCLDY    66  58  73 SE8       29.87R
HALLOCK        CLOUDY    66  64  94 SE3       29.82R
ROSEAU         PTCLDY    64  61  88 SE6       29.85R
WARROAD        CLEAR     66  63  88 SE8       29.84S
THIEF RVR FALL MOCLDY    66  57  72 SE7       29.84R
CROOKSTON      MOCLDY    66  61  82 SE3       29.83R
FOSSTON        MOCLDY    64  55  72 SE3       29.86R
DETROIT LAKES  MOCLDY    68  61  77 SE14      29.85R
MOORHEAD       MOCLDY    72  64  78 SE6       29.81R
PARK RAPIDS    MOCLDY    68  59  73 SE8       29.87R
$$
MNZ006-009>011-018-025>026-250500-
   North Central Minnesota

CITY           SKY/WX    TMP DP  RH WIND       PRES   REMARKS
BAUDETTE       MOCLDY    65  60  84 SE6       29.87S
FLAG ISLAND    PTCLDY    72  61  68 S12       29.83S
INTL FALLS     CLEAR     60  57  89 SE3       29.87F
WASKISH        PTCLDY    63  59  88 CALM      29.86S
BIG FORK       MOCLDY    64  57  77 S2        29.89R
LONGVILLE      PTCLDY    63  59  88 S6        29.89R
GRAND RAPIDS   CLOUDY    64  57  77 SE7       29.89F
CRANE LAKE     PTCLDY    55  54  94 CALM      29.91F
ORR            MOCLDY    61  55  82 E3        29.87F
COOK           MOCLDY    61  57  88 CALM      29.90F
$$
MNZ012-019>021-037-250500-
   Northeast Minnesota

CITY           SKY/WX    TMP DP  RH WIND       PRES   REMARKS
DULUTH         LGT RAIN  66  56  70 SE7       29.91F
ELY            PTCLDY    59  55  88 S3        29.93F
HIBBING        CLOUDY    64  57  78 CALM      29.89F
EVELETH        CLOUDY    63  55  77 E3        29.92F
DULUTH HARBOR  CLOUDY    64  59  82 N3        29.91F
TWO HARBORS    CLOUDY    63  55  77 CALM      29.90F
SILVER BAY     MOCLDY    57  57 100 CALM      29.92F
GRAND MARAIS     N/A     55  51  86 CALM      29.93F
G MARAIS ARPRT PTCLDY    52  48  87 CALM      29.97F
$$
MNZ029>031-032-039>041-046>048-054>057-064-250500-
   West Central Minnesota

CITY           SKY/WX    TMP DP  RH WIND       PRES   REMARKS
FERGUS FALLS   PTCLDY    68  57  68 S23G29    29.77S
WHEATON        MOCLDY    64  61  88 SE14      29.81F
MORRIS         MOCLDY    66  63  88 SE12      29.83F
ALEXANDRIA     MOCLDY    66  61  84 SE14      29.87F
ELBOW LAKE     FAIR      66  60  81 SE17      29.81F
WADENA         MOCLDY    66  61  82 SE10      29.84F
GLENWOOD       PTCLDY    64  61  88 SE9       29.88F
APPLETON       CLOUDY    66  59  77 E10       29.84F
BENSON         PTCLDY    66  61  82 SE8       29.88F
ORTONVILLE     MOCLDY    66  59  77 E9        29.82F
MADISON        MOCLDY    70  61  73 SE9       29.83F
WILLMAR        FAIR      66  61  82 E10       29.91S
$$
MNZ033>034-036-042>043-049>051-058-059-250500-
   Central Minnesota

CITY           SKY/WX    TMP DP  RH WIND       PRES   REMARKS
ST CLOUD       PTCLDY    67  62  84 S8        29.92F
SAUK CENTRE    FAIR      65  60  84 SE10      29.89F
PAYNESVILLE    CLOUDY    65  59  81 E9        29.92F
AITKIN         PTCLDY    66  61  82 SE3       29.88F
PINE RIVER     CLOUDY    68  61  77 S5        29.94R
BRAINERD       PTCLDY    65  60  84 S5        29.89F
STAPLES        PTCLDY    66  59  77 SE7       29.86F
LONG PRAIRIE     N/A     64  61  88 SE12      29.88F
LITTLE FALLS   PTCLDY    66  61  82 SE9       29.89F
LITCHFIELD     MOCLDY    66  64  94 E8        29.94F
BUFFALO        PTCLDY    68  59  72 S3        29.96F
MAPLE LAKE     PTCLDY    68  61  77 S3        29.95F
$$
MNZ037-044-045-052-053-250500-
   East Central Minnesota

CITY           SKY/WX    TMP DP  RH WIND       PRES   REMARKS
PRINCETON        N/A     64  61  88 CALM      29.94F
MORA           PTCLDY    64  61  88 CALM      29.94F
CAMBRIDGE      CLEAR     70  57  64 S3        29.93F
RUSH CITY      PTCLDY    67  60  79 CALM      29.93F
MOOSE LAKE     MOCLDY    64  59  82 CALM      29.89F
HINCKLEY       MOCLDY    68  61  77 SE5       29.92F
CLOQUET        CLOUDY    64  55  72 CALM      29.91F
MCGREGOR       MOCLDY    64  59  82 SE6       29.90F
$$
MNZ071>073-080-081-089-090-097-098-250500-
   Southwest Minnesota

CITY           SKY/WX    TMP DP  RH WIND       PRES   REMARKS
MONTEVIDEO     CLOUDY    66  61  82 S10       29.86F
GRANITE FALLS  CLOUDY    66  59  78 E10G16    29.88F
CANBY          CLOUDY    66  60  81 SE7       29.85F
MARSHALL       CLOUDY    66  59  77 SE8       29.86S
REDWOOD FALLS  CLOUDY    67  61  81 SE9       29.89F
OLIVIA         MOCLDY    68  61  77 SE9       29.89F
PIPESTONE      MOCLDY    64  63  94 SE8       29.86S
WINDOM         CLOUDY    64  59  82 E5        29.92R
WORTHINGTON    PTCLDY    64  61  88 SE8       29.90R
JACKSON        MOCLDY    64  59  82 SE7       29.92R
TRACY          CLOUDY    66  61  83 CALM      29.89R
SLAYTON        CLOUDY    63  61  94 CALM      29.90R
$$
MNZ065>067-074>077-082>085-091>093-250500-
   South Central Minnesota

CITY           SKY/WX    TMP DP  RH WIND       PRES   REMARKS
MANKATO        CLOUDY    66  57  72 SE8       29.95F
NEW ULM        MOCLDY    66  63  88 SE9       29.92F
ST JAMES       MOCLDY    64  61  88 E8        29.94F
FAIRMONT       MOCLDY    61  55  82 E6        29.94R
GLENCOE        PTCLDY    66  58  75 E7        29.94F
FARIBAULT      PTCLDY    66  57  72 S3        29.99S
OWATONNA       CLEAR     64  59  82 E3        29.99S
WASECA         CLOUDY    63  54  72 E6        29.99S
ALBERT LEA     PTCLDY    66  59  77 SE6       29.98R
$$
MNZ078>079-086>088-094>096-250500-
   Southeast Minnesota

CITY           SKY/WX    TMP DP  RH WIND       PRES   REMARKS
ROCHESTER      CLEAR     64  58  80 CALM      30.02R
RED WING       CLEAR     66  61  82 CALM      29.96S
STANTON        PTCLDY    66  60  79 CALM      29.97S
DODGE CENTER   CLEAR     64  59  82 CALM      30.01R
WINONA         CLEAR     70  63  78 CALM      29.98R
AUSTIN         PTCLDY    63  57  82 CALM      29.99R
PRESTON        CLEAR     65  62  91 CALM      30.01R
$$
ABBREVIATIONS USED IN REMARKS
   TC - TEMPERATURES IN CELSIUS
  WCI - WIND CHILL INDEX
   HX - HEAT INDEX
  VSB - VISIBILITY
$$


USA.gov is the U.S. government's official web portal to all federal, state and local government web resources and services.